F1AGU-13 Weather Reports


time (UTC)temp
F
wind
direction
speed
knots
gust
knots
rain 1hr
in
rain 24hr
in
rain mn
in
humidity
%
barometer
mb
20260507213517 44 180 1.7 3.5 0.00 0.05 0.05 94 1014.5
20260507212517 44 180 2.6 4.3 0.00 0.05 0.05 93 1014.5
20260507211517 44 180 1.7 3.5 0.00 0.05 0.05 93 1014.4
20260507210517 45 180 0.9 4.3 0.00 0.05 0.05 94 1014.4
20260507205517 45 203 1.7 3.5 0.00 0.05 0.05 93 1014.2
20260507204517 45 180 1.7 3.5 0.00 0.05 0.05 93 1014.2
20260507203517 45 180 2.6 3.5 0.00 0.05 0.05 93 1014.2
20260507202517 45 203 2.6 3.5 0.00 0.05 0.05 93 1014.1
20260507201517 46 203 2.6 3.5 0.00 0.05 0.05 92 1014.0
20260507200517 46 225 0.9 1.7 0.00 0.05 0.05 91 1013.8
20260507195517 47 180 1.7 4.3 0.00 0.05 0.05 91 1013.6
20260507194517 47 180 1.7 2.6 0.00 0.05 0.05 91 1013.6
20260507193517 47 180 1.7 2.6 0.00 0.05 0.05 90 1013.6
20260507192517 48 203 1.7 2.6 0.00 0.05 0.05 89 1013.6
20260507191517 48 180 1.7 2.6 0.00 0.05 0.05 89 1013.2
20260507190517 49 0.0 0.0 0.00 0.05 0.05 87 1013.1
20260507185517 49 180 0.9 3.5 0.00 0.05 0.05 86 1013.1
20260507184517 50 0.0 0.0 0.00 0.05 0.05 85 1012.8
20260507183517 51 0.0 0.9 0.00 0.05 0.05 84 1013.0
20260507182517 52 0.0 0.0 0.00 0.05 0.05 83 1012.9
20260507181517 53 0.0 0.9 0.00 0.05 0.05 81 1013.1
20260507180517 54 0.0 0.0 0.00 0.05 0.05 80 1013.1
20260507175517 54 45 1.7 3.5 0.00 0.05 0.05 77 1013.1
20260507174517 55 23 1.7 3.5 0.00 0.05 0.05 76 1012.9
20260507173517 55 23 2.6 4.3 0.00 0.05 0.05 75 1013.3
20260507172517 56 0 1.7 6.1 0.00 0.05 0.05 73 1013.2
20260507171517 57 0 2.6 3.5 0.00 0.05 0.05 72 1013.4
20260507170517 58 338 2.6 4.3 0.00 0.05 0.05 70 1013.6
20260507165517 57 315 3.5 7.0 0.00 0.05 0.05 71 1013.3
20260507164517 56 0 2.6 5.2 0.00 0.05 0.05 71 1013.3
20260507163517 56 23 2.6 6.1 0.00 0.05 0.05 71 1013.5
20260507162517 56 315 1.7 5.2 0.00 0.05 0.05 72 1013.5
20260507161517 56 338 2.6 3.5 0.00 0.05 0.05 72 1013.4
20260507160517 57 315 1.7 2.6 0.00 0.05 0.05 73 1013.4
20260507155516 57 338 1.7 4.3 0.00 0.05 0.05 72 1013.4
20260507154516 57 338 3.5 7.0 0.00 0.05 0.05 72 1013.6
20260507153729 57 338 3.5 7.0 0.00 0.05 0.05 73 1013.5
20260507153516 57 338 3.5 7.0 0.00 0.05 0.05 73 1013.5
20260507152516 57 338 2.6 5.2 0.00 0.05 0.05 74 1013.8
20260507151516 57 338 2.6 5.2 0.00 0.05 0.05 71 1013.7
20260507150517 57 338 1.7 2.6 0.00 0.05 0.05 73 1013.7
20260507145516 57 338 1.7 2.6 0.00 0.05 0.05 71 1013.8
20260507144516 57 23 1.7 3.5 0.00 0.05 0.05 73 1013.8
20260507143516 57 0 0.9 2.6 0.00 0.05 0.05 72 1014.0
20260507142516 56 23 1.7 3.5 0.00 0.05 0.05 71 1014.1
20260507141516 56 0 2.6 7.0 0.00 0.05 0.05 73 1014.0
20260507140516 57 338 3.5 7.0 0.00 0.05 0.05 71 1013.9
20260507135516 57 338 5.2 7.8 0.00 0.05 0.05 71 1014.0
20260507134516 57 338 4.3 7.8 0.00 0.05 0.05 68 1014.1
20260507133516 57 338 2.6 6.1 0.00 0.05 0.05 68 1014.2
20260507132516 58 315 2.6 5.2 0.00 0.05 0.05 71 1014.5
20260507131516 58 293 3.5 7.0 0.00 0.05 0.05 65 1014.5
20260507130516 59 338 2.6 7.0 0.00 0.05 0.05 65 1014.6
20260507125516 58 338 2.6 7.0 0.00 0.05 0.05 68 1014.7
20260507124628 58 315 2.6 6.1 0.00 0.05 0.05 70 1014.6
20260507124516 58 315 2.6 6.1 0.00 0.05 0.05 70 1014.6
20260507123516 58 0 6.1 11.3 0.00 0.05 0.05 69 1014.4
20260507122516 58 23 1.7 5.2 0.00 0.05 0.05 67 1014.5
20260507121526 57 0 3.5 7.8 0.00 0.05 0.05 71 1014.8
20260507121516 57 0 3.5 7.8 0.00 0.05 0.05 71 1014.8
20260507120516 57 23 5.2 9.6 0.00 0.05 0.05 69 1014.8
20260507115516 56 315 5.2 9.6 0.00 0.05 0.05 69 1014.7
20260507114519 58 338 4.3 9.6 0.00 0.06 0.05 67 1014.9
20260507114516 58 338 4.3 9.6 0.00 0.06 0.05 67 1014.9
20260507113516 58 315 0.9 3.5 0.00 0.06 0.05 72 1014.9
20260507112516 56 225 2.6 4.3 0.00 0.06 0.05 74 1014.7
20260507111516 56 203 4.3 6.1 0.00 0.07 0.05 77 1014.8
20260507110516 57 225 5.2 7.8 0.00 0.09 0.05 75 1015.1
20260507105516 57 248 3.5 7.8 0.00 0.12 0.05 77 1015.0
20260507104516 57 315 0.9 3.5 0.00 0.13 0.05 73 1015.0
20260507103516 56 315 2.6 6.1 0.00 0.13 0.05 79 1014.8
20260507102516 55 0 2.6 4.3 0.00 0.13 0.05 77 1014.9
20260507101517 55 0 2.6 6.1 0.00 0.14 0.05 80 1014.7
20260507100516 54 45 2.6 5.2 0.00 0.15 0.05 83 1014.8
20260507095516 52 0 1.7 4.3 0.00 0.16 0.05 85 1014.6
20260507094516 51 45 0.9 2.6 0.00 0.18 0.05 86 1014.6
20260507093516 50 23 0.9 2.6 0.00 0.20 0.05 86 1014.5
20260507092516 49 45 1.7 3.5 0.00 0.22 0.05 88 1014.5
20260507091516 48 23 1.7 3.5 0.01 0.22 0.05 90 1014.1
20260507090516 48 0 2.6 6.1 0.01 0.23 0.05 89 1014.2
20260507085516 48 23 2.6 4.3 0.01 0.24 0.05 89 1014.0
20260507084516 48 45 2.6 4.3 0.01 0.24 0.05 92 1014.0
20260507083516 47 45 2.6 3.5 0.01 0.26 0.05 94 1014.0
20260507082516 46 338 2.6 3.5 0.01 0.28 0.05 95 1013.8
20260507081516 46 338 1.7 2.6 0.00 0.31 0.04 96 1014.1
20260507080516 45 0 0.9 2.6 0.00 0.31 0.04 96 1014.0
20260507075516 45 0 0.9 1.7 0.00 0.32 0.04 96 1013.9
20260507074516 44 0 1.7 2.6 0.00 0.33 0.04 97 1013.9
20260507073516 44 0.0 0.9 0.00 0.34 0.04 97 1013.9
20260507072516 44 68 0.9 1.7 0.00 0.34 0.04 97 1013.8
20260507071516 44 68 1.7 2.6 0.00 0.35 0.04 98 1013.8
20260507070516 43 0.0 0.9 0.00 0.36 0.04 97 1013.6
20260507065516 43 158 0.9 1.7 0.00 0.39 0.04 98 1013.5
20260507064515 42 158 0.9 1.7 0.00 0.41 0.04 98 1013.8
20260507063515 42 0.0 0.0 0.00 0.45 0.04 97 1013.6
20260507062515 42 0.0 0.9 0.00 0.48 0.04 97 1013.5
20260507061515 41 0.0 0.9 0.00 0.50 0.04 97 1013.7
20260507060515 41 0.0 0.9 0.00 0.51 0.04 97 1013.7
20260507055515 41 0.0 0.0 0.00 0.54 0.04 97 1013.7
20260507054515 41 0.0 1.7 0.00 0.54 0.04 97 1014.0
20260507053515 42 158 1.7 2.6 0.00 0.55 0.04 97 1013.9
20260507052515 41 158 1.7 2.6 0.00 0.55 0.04 97 1013.8
20260507051516 42 180 0.9 1.7 0.00 0.55 0.04 96 1013.9
20260507050515 42 135 0.9 1.7 0.00 0.55 0.04 97 1014.1
20260507045515 42 135 0.9 1.7 0.00 0.55 0.04 96 1014.0
20260507044517 42 0.0 0.0 0.00 0.55 0.04 96 1014.1
20260507043517 43 0.0 0.9 0.00 0.57 0.04 97 1014.1
20260507042517 43 0.0 0.9 0.00 0.57 0.04 97 1014.2
20260507041517 43 135 0.9 2.6 0.00 0.58 0.04 97 1013.9
20260507040517 43 180 0.9 1.7 0.00 0.58 0.04 97 1013.9
20260507035517 43 180 0.9 1.7 0.00 0.58 0.04 97 1013.6
20260507034517 43 180 1.7 3.5 0.00 0.58 0.04 97 1013.4
20260507033519 43 203 1.7 2.6 0.00 0.58 0.04 97 1013.7
20260507032517 43 180 1.7 2.6 0.00 0.58 0.04 97 1013.6
20260507031517 43 180 0.9 1.7 0.00 0.58 0.04 97 1013.5
20260507030517 42 180 0.9 1.7 0.00 0.58 0.04 97 1013.4
20260507025517 42 0.0 0.9 0.00 0.58 0.04 97 1013.4
20260507024517 42 180 0.9 1.7 0.00 0.58 0.04 97 1013.5
20260507023517 42 180 0.9 2.6 0.00 0.59 0.04 97 1013.4
20260507022517 42 0.0 1.7 0.00 0.59 0.04 97 1013.4
20260507021517 42 180 0.9 1.7 0.00 0.59 0.04 97 1013.6
20260507020517 42 0.0 1.7 0.00 0.59 0.04 97 1013.5
20260507015517 42 180 2.6 4.3 0.00 0.59 0.04 97 1013.5
20260507014517 42 203 0.9 2.6 0.00 0.59 0.04 96 1013.4
20260507013517 42 180 2.6 4.3 0.00 0.59 0.04 96 1013.4
20260507012517 43 158 0.9 1.7 0.00 0.59 0.04 96 1013.2
20260507011517 42 158 0.9 1.7 0.00 0.59 0.04 97 1013.4
20260507010517 42 0.0 0.0 0.00 0.59 0.04 97 1013.3
20260507005517 42 203 0.9 1.7 0.00 0.59 0.04 97 1013.3
20260507004517 42 135 0.9 2.6 0.00 0.59 0.04 97 1012.9
20260507003517 42 158 0.9 2.6 0.00 0.59 0.04 97 1013.0
20260507002517 42 203 1.7 2.6 0.00 0.59 0.04 97 1013.1
20260507001517 42 203 0.9 2.6 0.00 0.59 0.04 96 1012.8
20260507000517 43 203 1.7 3.5 0.00 0.59 0.04 96 1012.9
20260506235517 43 203 1.7 2.6 0.00 0.59 0.04 96 1013.0
20260506234517 43 0.0 1.7 0.00 0.59 0.04 96 1012.9
20260506233517 43 0 1.7 2.6 0.01 0.59 0.04 96 1013.0
20260506232517 43 23 0.9 2.6 0.01 0.59 0.04 95 1012.9
20260506231517 43 293 0.9 3.5 0.04 0.59 0.04 95 1013.1
20260506230517 43 180 0.9 1.7 0.04 0.59 0.04 95 1013.0
20260506225517 43 68 1.7 3.5 0.04 0.60 0.04 96 1013.0
20260506224517 43 225 1.7 2.6 0.04 0.60 0.04 95 1013.0
20260506223517 44 158 0.9 2.6 0.03 0.59 0.03 95 1013.0
20260506222517 43 68 1.7 3.5 0.03 0.59 0.03 96 1013.0
20260506221517 43 180 2.6 4.3 0.00 0.56 0.00 95 1012.8
20260506220517 43 203 0.9 1.7 0.00 0.56 0.00 95 1012.6
20260506215517 43 203 1.7 3.5 0.00 0.58 0.57 95 1012.4
20260506214517 43 158 1.7 4.3 0.00 0.61 0.57 95 1012.5